| time (UTC) | temp F | wind direction | speed MPH | gust MPH | rain 1hr in | rain 24hr in | rain mn in | humidity % | barometer mb |
| 20260508121003 | 61 | 92 | 5.0 | 8.0 | 0.00 | 0.02 | 0.02 | 73 | 1014.8 |
| 20260508120004 | 60 | 94 | 3.0 | 8.0 | 0.00 | 0.02 | 0.02 | 73 | 1014.8 |
| 20260508115504 | 60 | 109 | 4.0 | 8.0 | 0.00 | 0.02 | 0.02 | 73 | 1014.8 |
| 20260508115004 | 60 | 67 | 3.0 | 8.0 | 0.00 | 0.02 | 0.02 | 73 | 1014.8 |
| 20260508114503 | 60 | 37 | 3.0 | 10.0 | 0.00 | 0.02 | 0.02 | 73 | 1014.7 |
| 20260508114004 | 60 | 51 | 5.0 | 8.0 | 0.00 | 0.02 | 0.02 | 74 | 1014.7 |
| 20260508113505 | 60 | 83 | 6.0 | 9.0 | 0.00 | 0.02 | 0.02 | 72 | 1014.8 |
| 20260508113005 | 60 | 111 | 4.0 | 8.0 | 0.00 | 0.02 | 0.02 | 74 | 1014.9 |
| 20260508112504 | 59 | 44 | 3.0 | 9.0 | 0.00 | 0.02 | 0.02 | 74 | 1014.9 |
| 20260508112003 | 59 | 107 | 3.0 | 7.0 | 0.00 | 0.02 | 0.02 | 76 | 1014.9 |
| 20260508111505 | 58 | 94 | 3.0 | 6.0 | 0.00 | 0.02 | 0.02 | 77 | 1014.9 |
| 20260508111004 | 57 | 50 | 5.0 | 8.0 | 0.00 | 0.02 | 0.02 | 79 | 1015.0 |
| 20260508110503 | 57 | 62 | 6.0 | 9.0 | 0.00 | 0.02 | 0.02 | 78 | 1015.1 |
| 20260508110004 | 57 | 90 | 3.0 | 9.0 | 0.00 | 0.02 | 0.02 | 76 | 1015.1 |
| 20260508105004 | 56 | 92 | 5.0 | 9.0 | 0.00 | 0.02 | 0.02 | 77 | 1015.0 |
| 20260508104504 | 56 | 87 | 7.0 | 12.0 | 0.00 | 0.02 | 0.02 | 77 | 1015.0 |
| 20260508102505 | 57 | 121 | 6.0 | 12.0 | 0.00 | 0.02 | 0.02 | 74 | 1015.1 |
| 20260508102003 | 57 | 130 | 5.0 | 9.0 | 0.00 | 0.02 | 0.02 | 75 | 1015.0 |
| 20260508101504 | 57 | 110 | 7.0 | 10.0 | 0.00 | 0.02 | 0.02 | 74 | 1015.0 |
| 20260508101004 | 58 | 114 | 5.0 | 12.0 | 0.00 | 0.02 | 0.02 | 74 | 1015.0 |
| 20260508100503 | 58 | 95 | 8.0 | 12.0 | 0.00 | 0.02 | 0.02 | 73 | 1015.0 |
| 20260508100005 | 58 | 99 | 7.0 | 12.0 | 0.00 | 0.02 | 0.02 | 74 | 1014.9 |
| 20260508095503 | 58 | 85 | 6.0 | 10.0 | 0.00 | 0.02 | 0.02 | 72 | 1014.9 |
| 20260508095004 | 59 | 87 | 5.0 | 10.0 | 0.00 | 0.02 | 0.02 | 72 | 1014.9 |
| 20260508094003 | 60 | 85 | 4.0 | 12.0 | 0.00 | 0.02 | 0.02 | 70 | 1014.9 |
| 20260508093503 | 61 | 104 | 6.0 | 12.0 | 0.00 | 0.02 | 0.02 | 70 | 1014.8 |
| 20260508093004 | 61 | 110 | 5.0 | 9.0 | 0.00 | 0.02 | 0.02 | 72 | 1014.9 |
| 20260508092503 | 60 | 92 | 5.0 | 10.0 | 0.00 | 0.02 | 0.02 | 74 | 1014.9 |
| 20260508092004 | 59 | 119 | 5.0 | 12.0 | 0.00 | 0.02 | 0.02 | 74 | 1014.9 |
| 20260508091503 | 59 | 128 | 8.0 | 10.0 | 0.00 | 0.02 | 0.02 | 73 | 1014.9 |
| 20260508090504 | 58 | 94 | 6.0 | 9.0 | 0.00 | 0.02 | 0.02 | 76 | 1015.0 |
| 20260508090004 | 57 | 101 | 5.0 | 9.0 | 0.00 | 0.02 | 0.02 | 79 | 1015.0 |
| 20260508085003 | 55 | 56 | 3.0 | 8.0 | 0.00 | 0.02 | 0.02 | 80 | 1015.1 |
| 20260508084504 | 55 | 90 | 5.0 | 9.0 | 0.00 | 0.02 | 0.02 | 80 | 1015.1 |
| 20260508084003 | 54 | 107 | 3.0 | 9.0 | 0.00 | 0.02 | 0.02 | 79 | 1015.0 |
| 20260508083504 | 54 | 105 | 5.0 | 9.0 | 0.00 | 0.02 | 0.02 | 80 | 1015.1 |
| 20260508083004 | 54 | 89 | 6.0 | 9.0 | 0.00 | 0.02 | 0.02 | 78 | 1015.1 |
| 20260508082503 | 54 | 101 | 4.0 | 8.0 | 0.00 | 0.02 | 0.02 | 80 | 1015.1 |
| 20260508082004 | 54 | 89 | 2.0 | 5.0 | 0.00 | 0.02 | 0.02 | 81 | 1015.1 |
| 20260508081504 | 54 | 93 | 4.0 | 7.0 | 0.00 | 0.02 | 0.02 | 81 | 1015.1 |
| 20260508080504 | 54 | 108 | 3.0 | 7.0 | 0.00 | 0.02 | 0.02 | 82 | 1015.0 |
| 20260508080004 | 54 | 121 | 5.0 | 8.0 | 0.00 | 0.02 | 0.02 | 82 | 1014.9 |
| 20260508075505 | 54 | 118 | 4.0 | 7.0 | 0.00 | 0.02 | 0.02 | 83 | 1014.8 |
| 20260508075004 | 53 | 80 | 2.0 | 3.0 | 0.00 | 0.02 | 0.02 | 85 | 1014.7 |
| 20260508074503 | 53 | 45 | 2.0 | 3.0 | 0.00 | 0.02 | 0.02 | 85 | 1014.7 |
| 20260508074006 | 53 | 37 | 2.0 | 3.0 | 0.00 | 0.02 | 0.02 | 86 | 1014.7 |
| 20260508073503 | 52 | 29 | 1.0 | 6.0 | 0.00 | 0.02 | 0.02 | 87 | 1014.7 |
| 20260508073003 | 52 | 37 | 2.0 | 3.0 | 0.00 | 0.02 | 0.02 | 88 | 1014.6 |
| 20260508072504 | 52 | 32 | 1.0 | 3.0 | 0.00 | 0.02 | 0.02 | 88 | 1014.6 |
| 20260508072005 | 51 | 57 | 2.0 | 3.0 | 0.00 | 0.02 | 0.02 | 89 | 1014.6 |
| 20260508071505 | 51 | 66 | 3.0 | 6.0 | 0.00 | 0.02 | 0.02 | 89 | 1014.6 |
| 20260508071004 | 51 | 51 | 3.0 | 6.0 | 0.00 | 0.02 | 0.02 | 89 | 1014.6 |
| 20260508070504 | 50 | 62 | 3.0 | 5.0 | 0.00 | 0.02 | 0.02 | 90 | 1014.5 |
| 20260508065504 | 50 | 73 | 2.0 | 7.0 | 0.00 | 0.02 | 0.02 | 90 | 1014.6 |
| 20260508065004 | 50 | 135 | 1.0 | 3.0 | 0.00 | 0.02 | 0.02 | 90 | 1014.6 |
| 20260508064505 | 49 | 161 | 1.0 | 3.0 | 0.00 | 0.02 | 0.02 | 90 | 1014.7 |
| 20260508064004 | 49 | 72 | 0.0 | 3.0 | 0.00 | 0.02 | 0.02 | 90 | 1014.7 |
| 20260508063503 | 49 | 106 | 1.0 | 5.0 | 0.00 | 0.02 | 0.02 | 90 | 1014.8 |
| 20260508063004 | 49 | 115 | 1.0 | 3.0 | 0.00 | 0.02 | 0.02 | 90 | 1014.8 |
| 20260508062504 | 49 | 117 | 1.0 | 2.0 | 0.00 | 0.02 | 0.02 | 90 | 1014.8 |
| 20260508061504 | 49 | 136 | 1.0 | 3.0 | 0.00 | 0.02 | 0.02 | 90 | 1014.8 |
| 20260508061004 | 49 | 136 | 0.0 | 3.0 | 0.00 | 0.02 | 0.02 | 90 | 1014.7 |
| 20260508060004 | 48 | 136 | 0.0 | 2.0 | 0.00 | 0.02 | 0.02 | 90 | 1014.7 |
| 20260508055504 | 48 | 136 | 1.0 | 3.0 | 0.00 | 0.02 | 0.02 | 90 | 1014.6 |
| 20260508055004 | 48 | 136 | 0.0 | 1.0 | 0.00 | 0.02 | 0.02 | 90 | 1014.5 |
| 20260508054505 | 48 | 136 | 1.0 | 2.0 | 0.00 | 0.02 | 0.02 | 90 | 1014.5 |
| 20260508054003 | 48 | 136 | 0.0 | 0.0 | 0.00 | 0.02 | 0.02 | 90 | 1014.5 |
| 20260508053503 | 48 | 136 | 0.0 | 0.0 | 0.00 | 0.02 | 0.02 | 90 | 1014.4 |
| 20260508052004 | 48 | 136 | 0.0 | 2.0 | 0.00 | 0.02 | 0.02 | 90 | 1014.4 |
| 20260508051504 | 48 | 136 | 1.0 | 1.0 | 0.00 | 0.02 | 0.02 | 90 | 1014.2 |
| 20260508051003 | 48 | 136 | 0.0 | 2.0 | 0.00 | 0.02 | 0.02 | 90 | 1014.2 |
| 20260508050504 | 48 | 144 | 0.0 | 3.0 | 0.00 | 0.02 | 0.02 | 90 | 1014.1 |
| 20260508050004 | 48 | 146 | 0.0 | 1.0 | 0.00 | 0.02 | 0.02 | 90 | 1014.1 |
| 20260508045503 | 48 | 146 | 0.0 | 1.0 | 0.00 | 0.02 | 0.02 | 90 | 1014.1 |
| 20260508045004 | 48 | 145 | 1.0 | 2.0 | 0.00 | 0.02 | 0.02 | 90 | 1014.1 |
| 20260508043504 | 48 | 169 | 1.0 | 2.0 | 0.00 | 0.02 | 0.02 | 90 | 1014.1 |
| 20260508043004 | 48 | 169 | 1.0 | 2.0 | 0.00 | 0.02 | 0.02 | 90 | 1014.2 |
| 20260508042004 | 49 | 169 | 1.0 | 2.0 | 0.00 | 0.02 | 0.02 | 90 | 1014.2 |
| 20260508041504 | 49 | 169 | 1.0 | 3.0 | 0.00 | 0.02 | 0.02 | 90 | 1014.1 |
| 20260508040504 | 49 | 175 | 0.0 | 0.0 | 0.00 | 0.02 | 0.02 | 90 | 1014.2 |
| 20260508040004 | 49 | 175 | 0.0 | 0.0 | 0.00 | 0.02 | 0.02 | 89 | 1014.1 |
| 20260508035504 | 49 | 175 | 0.0 | 2.0 | 0.00 | 0.02 | 0.02 | 89 | 1014.1 |
| 20260508035003 | 49 | 175 | 1.0 | 2.0 | 0.00 | 0.02 | 0.02 | 89 | 1014.1 |
| 20260508034504 | 49 | 175 | 0.0 | 0.0 | 0.00 | 0.02 | 0.02 | 89 | 1014.2 |
| 20260508034005 | 49 | 175 | 0.0 | 1.0 | 0.00 | 0.02 | 0.02 | 89 | 1014.2 |
| 20260508033503 | 49 | 175 | 0.0 | 2.0 | 0.00 | 0.02 | 0.02 | 89 | 1014.2 |
| 20260508033004 | 49 | 175 | 1.0 | 2.0 | 0.00 | 0.02 | 0.02 | 89 | 1014.2 |
| 20260508032004 | 49 | 178 | 2.0 | 3.0 | 0.00 | 0.02 | 0.02 | 89 | 1014.4 |
| 20260508031504 | 49 | 182 | 2.0 | 3.0 | 0.00 | 0.02 | 0.02 | 89 | 1014.4 |
| 20260508031004 | 49 | 182 | 0.0 | 3.0 | 0.00 | 0.02 | 0.02 | 89 | 1014.4 |
| 20260508030504 | 49 | 182 | 1.0 | 3.0 | 0.00 | 0.02 | 0.02 | 89 | 1014.4 |
| 20260508030004 | 49 | 182 | 0.0 | 0.0 | 0.00 | 0.02 | 0.02 | 89 | 1014.4 |
| 20260508025504 | 49 | 182 | 0.0 | 0.0 | 0.00 | 0.02 | 0.02 | 89 | 1014.5 |
| 20260508025004 | 49 | 183 | 0.0 | 0.0 | 0.00 | 0.02 | 0.02 | 89 | 1014.4 |
| 20260508024504 | 49 | 183 | 0.0 | 0.0 | 0.00 | 0.02 | 0.02 | 89 | 1014.5 |
| 20260508023503 | 49 | 183 | 0.0 | 0.0 | 0.00 | 0.02 | 0.02 | 88 | 1014.5 |
| 20260508023004 | 49 | 183 | 0.0 | 0.0 | 0.00 | 0.02 | 0.02 | 88 | 1014.5 |
| 20260508022503 | 49 | 183 | 0.0 | 0.0 | 0.00 | 0.02 | 0.02 | 88 | 1014.5 |
| 20260508021504 | 49 | 183 | 0.0 | 0.0 | 0.00 | 0.02 | 0.02 | 88 | 1014.5 |
| 20260508021004 | 49 | 183 | 0.0 | 0.0 | 0.00 | 0.02 | 0.02 | 88 | 1014.5 |
| 20260508020504 | 49 | 183 | 0.0 | 0.0 | 0.00 | 0.02 | 0.02 | 88 | 1014.5 |
| 20260508020003 | 49 | 183 | 0.0 | 0.0 | 0.00 | 0.02 | 0.02 | 88 | 1014.4 |
| 20260508015504 | 49 | 183 | 0.0 | 0.0 | 0.00 | 0.02 | 0.02 | 88 | 1014.4 |
| 20260508015003 | 49 | 182 | 0.0 | 2.0 | 0.00 | 0.02 | 0.02 | 87 | 1014.4 |
| 20260508014504 | 49 | 183 | 1.0 | 2.0 | 0.01 | 0.02 | 0.02 | 87 | 1014.4 |
| 20260508013504 | 50 | 183 | 1.0 | 3.0 | 0.02 | 0.02 | 0.02 | 88 | 1014.4 |
| 20260508013004 | 50 | 183 | 2.0 | 3.0 | 0.02 | 0.02 | 0.02 | 88 | 1014.5 |
| 20260508012503 | 50 | 189 | 2.0 | 3.0 | 0.02 | 0.02 | 0.02 | 88 | 1014.5 |
| 20260508012004 | 50 | 244 | 1.0 | 2.0 | 0.02 | 0.02 | 0.02 | 88 | 1014.4 |
| 20260508011503 | 50 | 246 | 1.0 | 2.0 | 0.02 | 0.02 | 0.02 | 88 | 1014.5 |
| 20260508011004 | 49 | 246 | 1.0 | 3.0 | 0.02 | 0.02 | 0.02 | 88 | 1014.5 |
| 20260508010504 | 49 | 246 | 2.0 | 3.0 | 0.02 | 0.02 | 0.02 | 87 | 1014.6 |
| 20260508010004 | 49 | 253 | 1.0 | 3.0 | 0.02 | 0.02 | 0.02 | 87 | 1014.6 |
| 20260508005503 | 49 | 253 | 1.0 | 2.0 | 0.02 | 0.02 | 0.02 | 86 | 1014.6 |
| 20260508005004 | 49 | 252 | 0.0 | 0.0 | 0.02 | 0.02 | 0.02 | 86 | 1014.6 |
| 20260508004504 | 49 | 252 | 0.0 | 0.0 | 0.01 | 0.01 | 0.01 | 85 | 1014.7 |
| 20260508004003 | 49 | 252 | 0.0 | 0.0 | 0.00 | 0.00 | 0.00 | 85 | 1014.8 |
| 20260508003004 | 48 | 252 | 0.0 | 0.0 | 0.00 | 0.00 | 0.00 | 85 | 1014.7 |
| 20260508002503 | 48 | 252 | 0.0 | 0.0 | 0.00 | 0.00 | 0.00 | 85 | 1014.6 |
| 20260508002004 | 48 | 252 | 0.0 | 0.0 | 0.00 | 0.00 | 0.00 | 85 | 1014.7 |
| 20260508001504 | 48 | 252 | 0.0 | 0.0 | 0.00 | 0.00 | 0.00 | 85 | 1014.6 |
| 20260508001003 | 48 | 252 | 0.0 | 0.0 | 0.00 | 0.00 | 0.00 | 85 | 1014.6 |
| 20260508000503 | 48 | 252 | 0.0 | 0.0 | 0.00 | 0.00 | 0.00 | 85 | 1014.6 |
| 20260508000003 | 48 | 252 | 0.0 | 0.0 | 0.00 | 0.00 | 0.00 | 84 | 1014.6 |
| 20260507235504 | 48 | 252 | 0.0 | 0.0 | 0.00 | 0.00 | 0.00 | 84 | 1014.6 |
| 20260507235003 | 48 | 252 | 0.0 | 0.0 | 0.00 | 0.00 | 0.00 | 84 | 1014.6 |
| 20260507234503 | 48 | 252 | 0.0 | 0.0 | 0.00 | 0.00 | 0.00 | 83 | 1014.6 |
| 20260507233504 | 48 | 252 | 0.0 | 0.0 | 0.00 | 0.00 | 0.00 | 83 | 1014.7 |
| 20260507233004 | 49 | 252 | 0.0 | 0.0 | 0.00 | 0.00 | 0.00 | 83 | 1014.7 |
| 20260507232003 | 49 | 252 | 0.0 | 0.0 | 0.00 | 0.00 | 0.00 | 82 | 1014.7 |
| 20260507231503 | 49 | 252 | 0.0 | 0.0 | 0.00 | 0.00 | 0.00 | 81 | 1014.7 |
| 20260507231004 | 49 | 252 | 0.0 | 0.0 | 0.00 | 0.00 | 0.00 | 81 | 1014.7 |
| 20260507230503 | 49 | 252 | 0.0 | 0.0 | 0.00 | 0.00 | 0.00 | 81 | 1014.7 |
| 20260507230005 | 50 | 252 | 0.0 | 0.0 | 0.00 | 0.00 | 0.00 | 81 | 1014.7 |
| 20260507225504 | 50 | 252 | 0.0 | 0.0 | 0.00 | 0.00 | 0.00 | 81 | 1014.7 |
| 20260507225004 | 50 | 252 | 0.0 | 0.0 | 0.00 | 0.00 | 0.00 | 81 | 1014.7 |
| 20260507224505 | 50 | 252 | 0.0 | 0.0 | 0.00 | 0.00 | 0.00 | 81 | 1014.8 |
| 20260507224004 | 50 | 252 | 0.0 | 0.0 | 0.00 | 0.00 | 0.00 | 80 | 1014.8 |
| 20260507223004 | 51 | 252 | 0.0 | 0.0 | 0.00 | 0.00 | 0.00 | 79 | 1014.8 |
| 20260507222503 | 51 | 252 | 0.0 | 0.0 | 0.00 | 0.00 | 0.00 | 78 | 1014.8 |
| 20260507222004 | 51 | 252 | 0.0 | 0.0 | 0.00 | 0.00 | 0.00 | 78 | 1014.7 |
| 20260507221504 | 51 | 252 | 0.0 | 0.0 | 0.00 | 0.00 | 0.00 | 78 | 1014.7 |
| 20260507221003 | 51 | 252 | 0.0 | 0.0 | 0.00 | 0.00 | 0.00 | 78 | 1014.8 |
| 20260507220504 | 51 | 252 | 0.0 | 0.0 | 0.00 | 0.00 | 0.00 | 78 | 1014.8 |
| 20260507220004 | 52 | 252 | 0.0 | 0.0 | 0.00 | 0.00 | 0.00 | 78 | 1014.7 |
| 20260507215503 | 52 | 252 | 0.0 | 1.0 | 0.00 | 0.00 | 0.00 | 78 | 1014.7 |
| 20260507215004 | 52 | 252 | 0.0 | 2.0 | 0.00 | 0.00 | 0.00 | 78 | 1014.8 |
| 20260507214504 | 52 | 252 | 0.0 | 2.0 | 0.00 | 0.00 | 0.00 | 77 | 1014.8 |
| 20260507213503 | 52 | 252 | 1.0 | 2.0 | 0.00 | 0.00 | 0.00 | 77 | 1014.8 |
| 20260507213004 | 52 | 252 | 0.0 | 2.0 | 0.00 | 0.00 | 0.00 | 77 | 1014.8 |
| 20260507212503 | 52 | 252 | 0.0 | 2.0 | 0.00 | 0.00 | 0.00 | 77 | 1014.8 |
| 20260507212003 | 52 | 252 | 0.0 | 2.0 | 0.00 | 0.00 | 0.00 | 76 | 1014.8 |
| 20260507211504 | 52 | 252 | 2.0 | 3.0 | 0.00 | 0.00 | 0.00 | 76 | 1014.7 |
| 20260507211004 | 52 | 252 | 2.0 | 3.0 | 0.00 | 0.00 | 0.00 | 76 | 1014.7 |
| 20260507210504 | 52 | 252 | 1.0 | 3.0 | 0.00 | 0.00 | 0.00 | 75 | 1014.6 |
| 20260507210005 | 53 | 252 | 1.0 | 3.0 | 0.00 | 0.00 | 0.00 | 75 | 1014.5 |
| 20260507205503 | 53 | 252 | 2.0 | 3.0 | 0.00 | 0.00 | 0.00 | 75 | 1014.6 |
| 20260507205003 | 53 | 252 | 0.0 | 1.0 | 0.00 | 0.00 | 0.00 | 74 | 1014.5 |
| 20260507204504 | 53 | 252 | 0.0 | 1.0 | 0.00 | 0.00 | 0.00 | 74 | 1014.4 |
| 20260507204003 | 53 | 252 | 0.0 | 0.0 | 0.00 | 0.00 | 0.00 | 74 | 1014.5 |
| 20260507203503 | 53 | 252 | 0.0 | 1.0 | 0.00 | 0.00 | 0.00 | 74 | 1014.4 |
| 20260507203004 | 53 | 252 | 0.0 | 0.0 | 0.00 | 0.00 | 0.00 | 74 | 1014.3 |
| 20260507202504 | 53 | 252 | 0.0 | 0.0 | 0.00 | 0.00 | 0.00 | 73 | 1014.3 |
| 20260507201504 | 53 | 252 | 0.0 | 0.0 | 0.00 | 0.00 | 0.00 | 73 | 1014.2 |
| 20260507201003 | 54 | 252 | 0.0 | 0.0 | 0.00 | 0.00 | 0.00 | 73 | 1014.1 |
| 20260507200504 | 54 | 252 | 0.0 | 1.0 | 0.00 | 0.00 | 0.00 | 72 | 1014.1 |
| 20260507200003 | 54 | 252 | 0.0 | 2.0 | 0.00 | 0.00 | 0.00 | 72 | 1014.1 |
| 20260507195503 | 54 | 252 | 0.0 | 1.0 | 0.00 | 0.00 | 0.00 | 71 | 1014.1 |
| 20260507195004 | 54 | 252 | 1.0 | 2.0 | 0.00 | 0.00 | 0.00 | 71 | 1014.0 |
| 20260507194504 | 54 | 252 | 1.0 | 3.0 | 0.00 | 0.00 | 0.00 | 71 | 1014.0 |
| 20260507194004 | 54 | 252 | 1.0 | 3.0 | 0.00 | 0.00 | 0.00 | 71 | 1014.0 |
| 20260507193504 | 54 | 252 | 2.0 | 3.0 | 0.00 | 0.00 | 0.00 | 70 | 1014.0 |
| 20260507193004 | 55 | 251 | 2.0 | 3.0 | 0.00 | 0.00 | 0.00 | 71 | 1013.9 |
| 20260507192503 | 55 | 250 | 1.0 | 3.0 | 0.00 | 0.00 | 0.00 | 71 | 1013.9 |
| 20260507192004 | 55 | 250 | 1.0 | 3.0 | 0.00 | 0.00 | 0.00 | 71 | 1013.9 |
| 20260507191503 | 55 | 250 | 1.0 | 3.0 | 0.00 | 0.00 | 0.00 | 71 | 1013.9 |
| 20260507191004 | 55 | 250 | 3.0 | 5.0 | 0.00 | 0.00 | 0.00 | 70 | 1013.9 |
| 20260507190504 | 55 | 245 | 1.0 | 2.0 | 0.00 | 0.00 | 0.00 | 70 | 1013.9 |
| 20260507190005 | 55 | 245 | 1.0 | 2.0 | 0.00 | 0.00 | 0.00 | 69 | 1013.8 |
| 20260507185503 | 55 | 245 | 1.0 | 2.0 | 0.00 | 0.00 | 0.00 | 69 | 1013.8 |
| 20260507184003 | 56 | 245 | 1.0 | 3.0 | 0.00 | 0.00 | 0.00 | 69 | 1013.9 |
| 20260507183503 | 56 | 245 | 2.0 | 3.0 | 0.00 | 0.00 | 0.00 | 68 | 1013.9 |
| 20260507183004 | 56 | 245 | 1.0 | 3.0 | 0.00 | 0.00 | 0.00 | 68 | 1013.8 |
| 20260507182504 | 56 | 252 | 2.0 | 3.0 | 0.00 | 0.00 | 0.00 | 68 | 1013.9 |
| 20260507182004 | 56 | 252 | 2.0 | 5.0 | 0.00 | 0.00 | 0.00 | 68 | 1013.9 |
| 20260507181503 | 57 | 252 | 3.0 | 3.0 | 0.00 | 0.00 | 0.00 | 68 | 1013.8 |
| 20260507181003 | 57 | 248 | 3.0 | 5.0 | 0.00 | 0.00 | 0.00 | 67 | 1013.7 |
| 20260507180504 | 57 | 247 | 2.0 | 3.0 | 0.00 | 0.00 | 0.00 | 67 | 1013.7 |
| 20260507180004 | 57 | 243 | 2.0 | 3.0 | 0.00 | 0.00 | 0.00 | 66 | 1013.7 |
| 20260507175504 | 57 | 246 | 2.0 | 5.0 | 0.00 | 0.00 | 0.00 | 66 | 1013.7 |
| 20260507175003 | 57 | 240 | 2.0 | 5.0 | 0.00 | 0.00 | 0.00 | 66 | 1013.6 |
| 20260507174504 | 57 | 264 | 2.0 | 6.0 | 0.00 | 0.00 | 0.00 | 66 | 1013.7 |
| 20260507173004 | 57 | 270 | 3.0 | 3.0 | 0.00 | 0.00 | 0.00 | 65 | 1013.7 |
| 20260507172503 | 58 | 275 | 3.0 | 6.0 | 0.00 | 0.00 | 0.00 | 66 | 1013.7 |
| 20260507172004 | 58 | 271 | 0.0 | 2.0 | 0.00 | 0.00 | 0.00 | 66 | 1013.6 |
| 20260507171503 | 58 | 271 | 2.0 | 7.0 | 0.00 | 0.00 | 0.00 | 66 | 1013.6 |
| 20260507171005 | 57 | 186 | 3.0 | 6.0 | 0.00 | 0.00 | 0.00 | 66 | 1013.7 |
| 20260507170504 | 57 | 261 | 2.0 | 3.0 | 0.00 | 0.00 | 0.00 | 66 | 1013.7 |
| 20260507170003 | 57 | 265 | 3.0 | 7.0 | 0.00 | 0.00 | 0.00 | 67 | 1013.8 |
| 20260507165504 | 57 | 269 | 2.0 | 6.0 | 0.00 | 0.00 | 0.00 | 67 | 1013.9 |
| 20260507164504 | 57 | 280 | 3.0 | 6.0 | 0.00 | 0.00 | 0.00 | 67 | 1013.8 |
| 20260507164005 | 57 | 270 | 2.0 | 6.0 | 0.00 | 0.00 | 0.00 | 68 | 1013.8 |
| 20260507163504 | 57 | 281 | 4.0 | 6.0 | 0.00 | 0.00 | 0.00 | 68 | 1013.8 |
| 20260507162503 | 56 | 257 | 2.0 | 3.0 | 0.00 | 0.00 | 0.00 | 68 | 1013.7 |
| 20260507162004 | 56 | 264 | 3.0 | 7.0 | 0.00 | 0.00 | 0.00 | 68 | 1013.8 |
| 20260507161503 | 56 | 256 | 3.0 | 6.0 | 0.00 | 0.00 | 0.00 | 68 | 1013.8 |
| 20260507160504 | 56 | 255 | 3.0 | 5.0 | 0.00 | 0.00 | 0.00 | 69 | 1013.8 |
| 20260507155505 | 57 | 249 | 5.0 | 9.0 | 0.00 | 0.00 | 0.00 | 67 | 1013.8 |
| 20260507154503 | 57 | 268 | 5.0 | 10.0 | 0.00 | 0.00 | 0.00 | 66 | 1013.8 |
| 20260507154004 | 57 | 245 | 6.0 | 10.0 | 0.00 | 0.00 | 0.00 | 65 | 1013.8 |
| 20260507153504 | 57 | 200 | 5.0 | 7.0 | 0.00 | 0.00 | 0.00 | 64 | 1013.8 |
| 20260507153004 | 58 | 209 | 5.0 | 12.0 | 0.00 | 0.00 | 0.00 | 62 | 1013.8 |
| 20260507152504 | 58 | 209 | 6.0 | 12.0 | 0.00 | 0.00 | 0.00 | 62 | 1013.9 |
| 20260507152004 | 58 | 193 | 5.0 | 12.0 | 0.00 | 0.00 | 0.00 | 63 | 1013.9 |
| 20260507151504 | 58 | 204 | 6.0 | 10.0 | 0.00 | 0.00 | 0.00 | 61 | 1013.8 |
| 20260507151004 | 58 | 209 | 6.0 | 12.0 | 0.00 | 0.00 | 0.00 | 62 | 1013.8 |
| 20260507150503 | 58 | 173 | 6.0 | 12.0 | 0.00 | 0.00 | 0.00 | 61 | 1013.8 |
| 20260507150005 | 59 | 189 | 5.0 | 12.0 | 0.00 | 0.00 | 0.00 | 62 | 1013.8 |
| 20260507145503 | 59 | 147 | 6.0 | 12.0 | 0.00 | 0.00 | 0.00 | 61 | 1013.8 |
| 20260507145004 | 59 | 136 | 5.0 | 9.0 | 0.00 | 0.00 | 0.00 | 62 | 1013.8 |
| 20260507144503 | 59 | 205 | 4.0 | 10.0 | 0.00 | 0.00 | 0.00 | 63 | 1013.8 |
| 20260507144004 | 59 | 200 | 5.0 | 10.0 | 0.00 | 0.00 | 0.00 | 62 | 1013.8 |
| 20260507143504 | 59 | 205 | 6.0 | 14.0 | 0.00 | 0.00 | 0.00 | 61 | 1013.9 |
| 20260507143004 | 59 | 175 | 5.0 | 9.0 | 0.00 | 0.00 | 0.00 | 62 | 1013.9 |
| 20260507142503 | 59 | 175 | 6.0 | 12.0 | 0.00 | 0.00 | 0.00 | 61 | 1014.0 |
| 20260507141504 | 59 | 185 | 5.0 | 10.0 | 0.00 | 0.00 | 0.00 | 61 | 1014.1 |
| 20260507141004 | 59 | 147 | 5.0 | 10.0 | 0.00 | 0.00 | 0.00 | 63 | 1014.1 |
| 20260507140504 | 59 | 186 | 3.0 | 13.0 | 0.00 | 0.00 | 0.00 | 63 | 1014.1 |
| 20260507135004 | 60 | 182 | 4.0 | 12.0 | 0.00 | 0.00 | 0.00 | 62 | 1014.1 |
| 20260507134503 | 60 | 165 | 5.0 | 12.0 | 0.00 | 0.00 | 0.00 | 60 | 1014.0 |
| 20260507134003 | 60 | 206 | 8.0 | 10.0 | 0.00 | 0.00 | 0.00 | 61 | 1014.1 |
| 20260507133504 | 60 | 189 | 5.0 | 13.0 | 0.00 | 0.00 | 0.00 | 59 | 1014.0 |
| 20260507133004 | 60 | 148 | 7.0 | 13.0 | 0.00 | 0.00 | 0.00 | 59 | 1014.0 |
| 20260507132503 | 60 | 128 | 7.0 | 12.0 | 0.00 | 0.00 | 0.00 | 61 | 1014.0 |
| 20260507131503 | 60 | 127 | 5.0 | 17.0 | 0.00 | 0.00 | 0.00 | 60 | 1014.1 |
| 20260507131004 | 59 | 164 | 6.0 | 12.0 | 0.00 | 0.00 | 0.00 | 62 | 1014.0 |
| 20260507130504 | 59 | 187 | 5.0 | 12.0 | 0.00 | 0.00 | 0.00 | 62 | 1014.1 |
| 20260507130004 | 59 | 184 | 6.0 | 15.0 | 0.00 | 0.00 | 0.00 | 60 | 1014.1 |
| 20260507125504 | 60 | 176 | 7.0 | 15.0 | 0.00 | 0.00 | 0.00 | 61 | 1014.1 |
| 20260507125003 | 60 | 178 | 7.0 | 12.0 | 0.00 | 0.00 | 0.00 | 60 | 1014.1 |
| 20260507124504 | 60 | 201 | 7.0 | 15.0 | 0.00 | 0.00 | 0.00 | 61 | 1014.1 |
| 20260507124004 | 59 | 187 | 2.0 | 6.0 | 0.00 | 0.00 | 0.00 | 64 | 1014.1 |
| 20260507123004 | 59 | 177 | 6.0 | 12.0 | 0.00 | 0.00 | 0.00 | 63 | 1014.2 |
| 20260507122505 | 59 | 193 | 6.0 | 13.0 | 0.00 | 0.00 | 0.00 | 63 | 1014.2 |
| 20260507122004 | 59 | 181 | 6.0 | 12.0 | 0.00 | 0.00 | 0.00 | 62 | 1014.2 |
| 20260507121504 | 59 | 201 | 6.0 | 12.0 | 0.00 | 0.00 | 0.00 | 63 | 1014.2 |